When you browse on this site, cookies collect data to enhance your experience and personalize the content and advertising you see.
Visit our Privacy Policy to learn more. By continuing to use the site, you agree to this use of cookies and data.
  • en France
  • Liste des pays
  • À 7 jours
  • Température de l'eau
  • Carte météo
  • Widgets météo
  • user-avatar
    Se connecter

    Météo par heure à Buon Ma Thuot

    Ce jour, 27 Mai, Mercredi

    Heure Température Précipitation Vent Pression Humidité
    00:00 +26°C° 1.8 mm 1 m/s 721 mmHg 95%
    01:00 +25°C° 0 mm 1 m/s 721 mmHg 95%
    02:00 +25°C° 0.4 mm 1 m/s 720 mmHg 95%
    03:00 +25°C° 0.4 mm 1 m/s 720 mmHg 96%
    04:00 +22°C° 0.4 mm 0 m/s 720 mmHg 96%
    05:00 +25°C° 0.1 mm 1 m/s 720 mmHg 95%
    06:00 +26°C° 0.1 mm 1 m/s 721 mmHg 93%
    07:00 +26°C° 0 mm 1 m/s 722 mmHg 89%
    08:00 +29°C° 0 mm 1 m/s 722 mmHg 79%
    09:00 +31°C° 0 mm 1 m/s 722 mmHg 69%
    10:00 +33°C° 0 mm 1 m/s 722 mmHg 58%
    11:00 +34°C° 0 mm 2 m/s 721 mmHg 55%
    12:00 +35°C° 0 mm 2 m/s 721 mmHg 53%
    13:00 +36°C° 0 mm 2 m/s 720 mmHg 50%
    14:00 +35°C° 0.1 mm 2 m/s 720 mmHg 52%
    15:00 +35°C° 0.1 mm 2 m/s 719 mmHg 55%
    16:00 +34°C° 0.1 mm 2 m/s 719 mmHg 57%
    17:00 +31°C° 0.6 mm 1 m/s 719 mmHg 67%
    18:00 +29°C° 0.6 mm 1 m/s 719 mmHg 76%
    19:00 +25°C° 0.6 mm 0 m/s 719 mmHg 86%
    20:00 +25°C° 1.3 mm 0 m/s 720 mmHg 89%
    21:00 +24°C° 1.3 mm 0 m/s 720 mmHg 92%
    22:00 +23°C° 1.3 mm 0 m/s 721 mmHg 95%
    23:00 +23°C° 1.9 mm 0 m/s 720 mmHg 96%

    Demain, 28 Mai, Jeudi

    Heure Température Précipitation Vent Pression Humidité
    00:00 +25°C° 1.9 mm 1 m/s 720 mmHg 96%
    01:00 +25°C° 1.9 mm 1 m/s 720 mmHg 96%
    02:00 +25°C° 0.1 mm 1 m/s 720 mmHg 96%
    03:00 +25°C° 0.1 mm 1 m/s 720 mmHg 95%
    04:00 +25°C° 0.1 mm 1 m/s 720 mmHg 95%
    05:00 +25°C° 0 mm 1 m/s 720 mmHg 94%
    06:00 +26°C° 0 mm 1 m/s 720 mmHg 93%
    07:00 +26°C° 0 mm 1 m/s 721 mmHg 91%
    08:00 +29°C° 0 mm 1 m/s 721 mmHg 79%
    09:00 +32°C° 0 mm 1 m/s 721 mmHg 67%
    10:00 +34°C° 0 mm 1 m/s 722 mmHg 55%
    11:00 +35°C° 0.2 mm 1 m/s 721 mmHg 54%
    12:00 +35°C° 0.2 mm 1 m/s 721 mmHg 53%
    13:00 +36°C° 0.2 mm 2 m/s 721 mmHg 52%
    14:00 +34°C° 2.4 mm 2 m/s 720 mmHg 64%
    15:00 +31°C° 2.4 mm 2 m/s 720 mmHg 76%
    16:00 +29°C° 2.4 mm 2 m/s 719 mmHg 88%
    17:00 +28°C° 2 mm 1 m/s 719 mmHg 90%
    18:00 +27°C° 2 mm 1 m/s 720 mmHg 92%
    19:00 +26°C° 2 mm 1 m/s 720 mmHg 94%
    20:00 +26°C° 0.3 mm 1 m/s 720 mmHg 94%
    21:00 +25°C° 0.3 mm 1 m/s 721 mmHg 95%
    22:00 +25°C° 0.3 mm 1 m/s 722 mmHg 96%
    23:00 +25°C° 0 mm 1 m/s 721 mmHg 96%

    Après-demain, 29 Mai, Vendredi

    Heure Température Précipitation Vent Pression Humidité
    00:00 +25°C° 0 mm 1 m/s 721 mmHg 95%
    01:00 +25°C° 0 mm 1 m/s 720 mmHg 95%
    02:00 +24°C° 0 mm 1 m/s 720 mmHg 95%
    03:00 +22°C° 0 mm 0 m/s 720 mmHg 96%
    04:00 +22°C° 0 mm 0 m/s 720 mmHg 96%
    05:00 +23°C° 0 mm 0 m/s 720 mmHg 93%
    06:00 +23°C° 0 mm 0 m/s 721 mmHg 91%
    07:00 +24°C° 0 mm 0 m/s 721 mmHg 89%
    08:00 +27°C° 0 mm 0 m/s 722 mmHg 78%
    09:00 +31°C° 0 mm 1 m/s 722 mmHg 66%
    10:00 +34°C° 0 mm 1 m/s 722 mmHg 55%
    11:00 +34°C° 0.2 mm 1 m/s 721 mmHg 54%
    12:00 +35°C° 0.2 mm 1 m/s 721 mmHg 52%
    13:00 +35°C° 0.2 mm 1 m/s 721 mmHg 51%
    14:00 +33°C° 1.9 mm 1 m/s 720 mmHg 63%
    15:00 +31°C° 1.9 mm 1 m/s 719 mmHg 75%
    16:00 +29°C° 1.9 mm 1 m/s 719 mmHg 87%
    17:00 +28°C° 6.5 mm 1 m/s 719 mmHg 90%
    18:00 +26°C° 6.5 mm 1 m/s 720 mmHg 93%
    19:00 +24°C° 6.5 mm 1 m/s 720 mmHg 97%
    20:00 +24°C° 1.3 mm 1 m/s 721 mmHg 97%
    21:00 +24°C° 1.3 mm 1 m/s 721 mmHg 97%
    22:00 +24°C° 1.3 mm 1 m/s 722 mmHg 97%
    23:00 +24°C° 0 mm 1 m/s 722 mmHg 97%

    30 Mai, Samedi

    Heure Température Précipitation Vent Pression Humidité
    00:00 +24°C° 0 mm 1 m/s 721 mmHg 97%
    01:00 +24°C° 0 mm 1 m/s 721 mmHg 96%
    02:00 +24°C° 0 mm 1 m/s 721 mmHg 96%
    03:00 +24°C° 0 mm 1 m/s 721 mmHg 95%
    04:00 +24°C° 0 mm 1 m/s 721 mmHg 95%
    05:00 +23°C° 0 mm 0 m/s 721 mmHg 94%
    06:00 +23°C° 0 mm 0 m/s 722 mmHg 92%
    07:00 +24°C° 0 mm 0 m/s 722 mmHg 91%
    08:00 +26°C° 0 mm 0 m/s 722 mmHg 81%
    09:00 +30°C° 0 mm 1 m/s 722 mmHg 71%
    10:00 +32°C° 0 mm 1 m/s 723 mmHg 61%
    11:00 +32°C° 0.2 mm 1 m/s 722 mmHg 60%
    12:00 +33°C° 0.2 mm 1 m/s 722 mmHg 58%
    13:00 +35°C° 0.2 mm 2 m/s 721 mmHg 56%
    14:00 +31°C° 2.7 mm 2 m/s 721 mmHg 68%
    15:00 +29°C° 2.7 mm 2 m/s 720 mmHg 80%
    16:00 +27°C° 2.7 mm 1 m/s 720 mmHg 93%
    17:00 +26°C° 1 mm 1 m/s 720 mmHg 93%
    18:00 +26°C° 1 mm 1 m/s 721 mmHg 94%
    19:00 +25°C° 1 mm 1 m/s 721 mmHg 94%
    20:00 +25°C° 0.6 mm 1 m/s 722 mmHg 95%
    21:00 +25°C° 0.6 mm 1 m/s 722 mmHg 95%
    22:00 +25°C° 0.6 mm 1 m/s 723 mmHg 96%
    23:00 +24°C° 0 mm 1 m/s 722 mmHg 95%

    31 Mai, Dimanche

    Heure Température Précipitation Vent Pression Humidité
    00:00 +24°C° 0 mm 1 m/s 722 mmHg 95%
    01:00 +24°C° 0 mm 1 m/s 721 mmHg 95%
    02:00 +24°C° 0 mm 1 m/s 721 mmHg 94%
    03:00 +24°C° 0 mm 1 m/s 721 mmHg 93%
    04:00 +22°C° 0 mm 0 m/s 721 mmHg 92%
    05:00 +23°C° 0 mm 0 m/s 721 mmHg 91%
    06:00 +23°C° 0 mm 0 m/s 722 mmHg 90%
    07:00 +24°C° 0 mm 0 m/s 722 mmHg 88%
    08:00 +26°C° 0 mm 0 m/s 722 mmHg 79%
    09:00 +30°C° 0 mm 1 m/s 722 mmHg 70%
    10:00 +32°C° 0 mm 1 m/s 723 mmHg 60%
    11:00 +32°C° 0 mm 1 m/s 722 mmHg 59%
    12:00 +33°C° 0 mm 1 m/s 722 mmHg 58%
    13:00 +34°C° 0 mm 2 m/s 721 mmHg 57%
    14:00 +34°C° 0.9 mm 2 m/s 721 mmHg 64%
    15:00 +32°C° 0.9 mm 2 m/s 720 mmHg 70%
    16:00 +31°C° 0.9 mm 2 m/s 720 mmHg 77%
    17:00 +29°C° 3.8 mm 2 m/s 720 mmHg 83%
    18:00 +27°C° 3.8 mm 1 m/s 720 mmHg 88%
    19:00 +26°C° 3.8 mm 1 m/s 720 mmHg 94%
    20:00 +25°C° 1.1 mm 1 m/s 721 mmHg 95%
    21:00 +25°C° 1.1 mm 1 m/s 721 mmHg 96%
    22:00 +25°C° 1.1 mm 1 m/s 722 mmHg 97%
    23:00 +25°C° 0 mm 1 m/s 721 mmHg 96%

    1 Juin, Lundi

    Heure Température Précipitation Vent Pression Humidité
    00:00 +25°C° 0 mm 1 m/s 721 mmHg 96%
    01:00 +24°C° 0 mm 1 m/s 721 mmHg 95%
    02:00 +24°C° 0 mm 1 m/s 720 mmHg 95%
    03:00 +24°C° 0 mm 1 m/s 720 mmHg 95%
    04:00 +24°C° 0 mm 1 m/s 720 mmHg 94%
    05:00 +25°C° 0 mm 1 m/s 720 mmHg 93%
    06:00 +25°C° 0 mm 1 m/s 721 mmHg 91%
    07:00 +24°C° 0 mm 0 m/s 721 mmHg 89%
    08:00 +28°C° 0 mm 1 m/s 721 mmHg 81%
    09:00 +30°C° 0 mm 1 m/s 722 mmHg 72%
    10:00 +32°C° 0 mm 1 m/s 722 mmHg 63%
    11:00 +32°C° 0 mm 2 m/s 722 mmHg 60%
    12:00 +34°C° 0 mm 2 m/s 721 mmHg 57%
    13:00 +35°C° 0 mm 2 m/s 720 mmHg 54%
    14:00 +34°C° 0.8 mm 2 m/s 720 mmHg 60%
    15:00 +32°C° 0.8 mm 2 m/s 719 mmHg 66%
    16:00 +31°C° 0.8 mm 2 m/s 719 mmHg 73%
    17:00 +30°C° 1.6 mm 1 m/s 719 mmHg 79%
    18:00 +28°C° 1.6 mm 1 m/s 719 mmHg 85%
    19:00 +24°C° 1.6 mm 0 m/s 719 mmHg 92%
    20:00 +24°C° 0 mm 0 m/s 720 mmHg 93%
    21:00 +23°C° 0 mm 0 m/s 720 mmHg 93%
    22:00 +23°C° 0 mm 0 m/s 720 mmHg 94%
    23:00 +25°C° 0 mm 1 m/s 720 mmHg 94%
    Voir plus